sat.trackr.live / text

‹ back to catalog

FENGYUN 2H

NORAD 43491 · 2018-050A

PAYLOAD ACTIVE UNKNOWN

§ Identity

Operator
Country
PRC
Launch date
2018-06-05
Launch site
XICLF
Launch vehicle
Mass (kg)
RCS (m²)

Purposes: comms, earth_obs

External: N2YO · Heavens-Above · Gunter

§ Orbital elements

Epoch: 2026-05-25T02:24:37.983168Z

Period
1,436.10 min
Inclination
2.9745°
Eccentricity
0.0001591
Mean motion
1.00271877 rev/d
Perigee alt
35,779.9 km
Apogee alt
35,793.3 km
Semi-major
42,164.7 km
B*
0.0000e+0
RAAN
79.3346°
Arg perigee
145.4496°
Mean anomaly
133.5023°
Rev number
2,920

§ Raw data

FENGYUN 2H1 43491U 18050A   26145.10043962 -.00000132  00000+0  00000+0 0  99932 43491   2.9745  79.3346 0001591 145.4496 133.5023  1.00271877 29204

JSON: /api/v1/satellites/43491 · /tle

For live sub-satellite position, see the globe view (requires WebGL).

§ Visibility from observer

Set your observer location to see the next 7 days of passes ≥ 10°. The values pass through the URL so the page stays shareable.

No JS? Fill the form by hand. The geolocation button needs JavaScript.

§ Radio — SatNOGS DB

ModeDescriptionDownlinkUplink
CW Mode L - CW TLM 1.703 GHz
BPSK Mode L - S-VISSR 2.0 - BPSK 660 kbps (1.212 MHz bandwidth) 1.688 GHz
BPSK Mode L xRIT - BPSK 500 kbps (1 MHz bandwidth) 1.691 GHz

3 transmitters · refreshed weekly from db.satnogs.org